| time (UTC) | temp F | wind direction | speed MPH | gust MPH | rain 1hr in | rain 24hr in | rain mn in | humidity % | barometer mb |
| 20260904105726 | 75 | 332 | 2.0 | 5.0 | 0.00 | 0.05 | 0.05 | 87 | 1010.2 |
| 20260904105226 | 75 | 309 | 2.0 | 3.0 | 0.00 | 0.05 | 0.05 | 87 | 1010.1 |
| 20260904104726 | 75 | 316 | 1.0 | 3.0 | 0.00 | 0.05 | 0.05 | 87 | 1010.1 |
| 20260904104226 | 75 | 266 | 1.0 | 3.0 | 0.00 | 0.05 | 0.05 | 87 | 1010.1 |
| 20260904103726 | 75 | 321 | 1.0 | 3.0 | 0.00 | 0.05 | 0.05 | 87 | 1010.1 |
| 20260904103226 | 75 | 240 | 1.0 | 3.0 | 0.00 | 0.05 | 0.05 | 87 | 1010.1 |
| 20260904102726 | 75 | 262 | 1.0 | 3.0 | 0.00 | 0.05 | 0.05 | 87 | 1010.0 |
| 20260904102226 | 74 | 262 | 1.0 | 3.0 | 0.00 | 0.05 | 0.05 | 87 | 1009.9 |
| 20260904101726 | 74 | 311 | 1.0 | 3.0 | 0.00 | 0.05 | 0.05 | 87 | 1009.9 |
| 20260904101226 | 74 | 285 | 0.0 | 3.0 | 0.00 | 0.05 | 0.05 | 86 | 1009.8 |
| 20260904100226 | 74 | 288 | 1.0 | 3.0 | 0.00 | 0.05 | 0.05 | 86 | 1009.9 |
| 20260904095726 | 75 | 239 | 0.0 | 3.0 | 0.00 | 0.05 | 0.05 | 86 | 1009.9 |
| 20260904095226 | 75 | 238 | 1.0 | 3.0 | 0.00 | 0.05 | 0.05 | 86 | 1009.8 |
| 20260904094726 | 75 | 244 | 0.0 | 6.0 | 0.00 | 0.05 | 0.05 | 86 | 1009.8 |
| 20260904094226 | 75 | 270 | 2.0 | 6.0 | 0.00 | 0.05 | 0.05 | 86 | 1009.9 |
| 20260904093726 | 75 | 232 | 1.0 | 3.0 | 0.00 | 0.05 | 0.05 | 86 | 1009.7 |
| 20260904093226 | 75 | 239 | 0.0 | 3.0 | 0.00 | 0.05 | 0.05 | 86 | 1009.5 |
| 20260904092726 | 75 | 239 | 1.0 | 3.0 | 0.00 | 0.05 | 0.05 | 86 | 1009.4 |
| 20260904092226 | 75 | 239 | 0.0 | 3.0 | 0.00 | 0.05 | 0.05 | 86 | 1009.5 |
| 20260904091726 | 75 | 236 | 2.0 | 3.0 | 0.00 | 0.05 | 0.05 | 86 | 1009.5 |
| 20260904091226 | 75 | 242 | 2.0 | 7.0 | 0.00 | 0.05 | 0.05 | 85 | 1009.4 |
| 20260904090726 | 75 | 248 | 1.0 | 7.0 | 0.00 | 0.05 | 0.05 | 85 | 1009.4 |
| 20260904090226 | 75 | 253 | 3.0 | 6.0 | 0.00 | 0.05 | 0.05 | 85 | 1009.5 |
| 20260904085726 | 75 | 274 | 1.0 | 7.0 | 0.00 | 0.05 | 0.05 | 85 | 1009.6 |
| 20260904085226 | 75 | 241 | 1.0 | 7.0 | 0.00 | 0.05 | 0.05 | 85 | 1009.7 |
| 20260904084725 | 75 | 244 | 1.0 | 3.0 | 0.00 | 0.05 | 0.05 | 85 | 1009.6 |
| 20260904084226 | 75 | 244 | 1.0 | 6.0 | 0.00 | 0.05 | 0.05 | 85 | 1009.5 |
| 20260904083726 | 75 | 252 | 1.0 | 6.0 | 0.00 | 0.05 | 0.05 | 85 | 1009.5 |
| 20260904083226 | 75 | 240 | 3.0 | 6.0 | 0.00 | 0.05 | 0.05 | 85 | 1009.6 |
| 20260904082726 | 75 | 233 | 1.0 | 6.0 | 0.00 | 0.05 | 0.05 | 85 | 1009.6 |
| 20260904081726 | 75 | 280 | 1.0 | 3.0 | 0.00 | 0.05 | 0.05 | 85 | 1009.7 |
| 20260904081226 | 75 | 252 | 1.0 | 3.0 | 0.00 | 0.05 | 0.05 | 85 | 1009.7 |
| 20260904080727 | 75 | 257 | 2.0 | 3.0 | 0.00 | 0.05 | 0.05 | 85 | 1009.7 |
| 20260904080226 | 75 | 266 | 2.0 | 3.0 | 0.00 | 0.05 | 0.05 | 85 | 1009.8 |
| 20260904075726 | 75 | 246 | 1.0 | 3.0 | 0.00 | 0.05 | 0.05 | 85 | 1009.7 |
| 20260904075226 | 75 | 254 | 1.0 | 3.0 | 0.00 | 0.05 | 0.05 | 85 | 1009.6 |
| 20260904074727 | 75 | 260 | 1.0 | 3.0 | 0.00 | 0.06 | 0.05 | 84 | 1009.7 |
| 20260904074226 | 75 | 278 | 1.0 | 2.0 | 0.01 | 0.06 | 0.05 | 84 | 1009.5 |
| 20260904073726 | 75 | 224 | 1.0 | 2.0 | 0.01 | 0.06 | 0.05 | 84 | 1009.6 |
| 20260904073225 | 75 | 142 | 0.0 | 2.0 | 0.01 | 0.06 | 0.05 | 84 | 1009.4 |
| 20260904072727 | 75 | 142 | 0.0 | 1.0 | 0.04 | 0.07 | 0.05 | 83 | 1009.2 |
| 20260904072226 | 75 | 142 | 0.0 | 2.0 | 0.05 | 0.07 | 0.05 | 83 | 1009.0 |
| 20260904071726 | 76 | 142 | 0.0 | 3.0 | 0.05 | 0.07 | 0.05 | 83 | 1008.8 |
| 20260904071225 | 76 | 140 | 2.0 | 3.0 | 0.05 | 0.08 | 0.05 | 82 | 1008.7 |
| 20260904070726 | 76 | 145 | 1.0 | 3.0 | 0.05 | 0.08 | 0.05 | 82 | 1008.8 |
| 20260904070226 | 76 | 340 | 0.0 | 3.0 | 0.05 | 0.09 | 0.05 | 81 | 1008.7 |
| 20260904065725 | 76 | 340 | 1.0 | 9.0 | 0.05 | 0.09 | 0.05 | 80 | 1008.8 |
| 20260904065225 | 76 | 257 | 3.0 | 9.0 | 0.05 | 0.10 | 0.05 | 79 | 1009.0 |
| 20260904064725 | 77 | 343 | 3.0 | 9.0 | 0.05 | 0.10 | 0.05 | 78 | 1009.3 |
| 20260904064225 | 78 | 292 | 3.0 | 12.0 | 0.04 | 0.10 | 0.04 | 77 | 1009.5 |
| 20260904063726 | 79 | 268 | 3.0 | 12.0 | 0.04 | 0.10 | 0.04 | 77 | 1009.8 |
| 20260904063226 | 80 | 0 | 5.0 | 12.0 | 0.04 | 0.11 | 0.04 | 76 | 1009.8 |
| 20260904062726 | 80 | 245 | 3.0 | 13.0 | 0.01 | 0.08 | 0.01 | 75 | 1009.9 |
| 20260904061725 | 81 | 213 | 2.0 | 8.0 | 0.00 | 0.07 | 0.00 | 75 | 1009.9 |
| 20260904061227 | 81 | 246 | 5.0 | 9.0 | 0.00 | 0.07 | 0.00 | 75 | 1009.8 |
| 20260904060727 | 81 | 261 | 3.0 | 9.0 | 0.00 | 0.07 | 0.00 | 75 | 1009.8 |
| 20260904055725 | 81 | 227 | 2.0 | 7.0 | 0.00 | 0.08 | 0.00 | 75 | 1009.8 |
| 20260904055225 | 81 | 210 | 2.0 | 6.0 | 0.00 | 0.08 | 0.00 | 75 | 1009.8 |
| 20260904054726 | 81 | 243 | 1.0 | 6.0 | 0.00 | 0.09 | 0.00 | 75 | 1009.9 |
| 20260904054225 | 81 | 197 | 2.0 | 6.0 | 0.00 | 0.09 | 0.00 | 75 | 1010.0 |
| 20260904053226 | 81 | 209 | 2.0 | 8.0 | 0.00 | 0.10 | 0.00 | 75 | 1010.3 |
| 20260904052725 | 81 | 209 | 3.0 | 8.0 | 0.00 | 0.11 | 0.00 | 75 | 1010.3 |
| 20260904052226 | 81 | 172 | 2.0 | 7.0 | 0.00 | 0.11 | 0.00 | 74 | 1010.3 |
| 20260904051726 | 81 | 196 | 2.0 | 7.0 | 0.00 | 0.11 | 0.00 | 74 | 1010.3 |
| 20260904051225 | 81 | 159 | 2.0 | 7.0 | 0.00 | 0.11 | 0.00 | 74 | 1010.3 |
| 20260904050226 | 81 | 198 | 2.0 | 8.0 | 0.00 | 0.11 | 0.00 | 73 | 1010.2 |
| 20260904045726 | 82 | 176 | 2.0 | 8.0 | 0.00 | 0.11 | 0.00 | 73 | 1010.2 |
| 20260904045226 | 82 | 168 | 3.0 | 8.0 | 0.00 | 0.12 | 0.00 | 73 | 1010.4 |
| 20260904044725 | 82 | 162 | 2.0 | 8.0 | 0.00 | 0.12 | 0.00 | 72 | 1010.5 |
| 20260904044225 | 82 | 210 | 2.0 | 8.0 | 0.00 | 0.12 | 0.00 | 72 | 1010.6 |
| 20260904043726 | 82 | 131 | 2.0 | 6.0 | 0.00 | 0.12 | 0.00 | 72 | 1010.7 |
| 20260904043226 | 82 | 227 | 2.0 | 6.0 | 0.00 | 0.12 | 0.00 | 72 | 1010.7 |
| 20260904042728 | 82 | 163 | 3.0 | 7.0 | 0.00 | 0.12 | 0.00 | 71 | 1010.8 |
| 20260904042228 | 82 | 175 | 4.0 | 7.0 | 0.00 | 0.12 | 0.00 | 71 | 1010.8 |
| 20260904041228 | 82 | 162 | 2.0 | 7.0 | 0.00 | 0.12 | 0.00 | 70 | 1011.0 |
| 20260904040729 | 83 | 169 | 3.0 | 7.0 | 0.00 | 0.12 | 0.00 | 70 | 1011.2 |
| 20260904035729 | 83 | 211 | 2.0 | 7.0 | 0.00 | 0.12 | 0.12 | 70 | 1011.1 |
| 20260904035228 | 83 | 162 | 2.0 | 7.0 | 0.00 | 0.12 | 0.12 | 69 | 1011.0 |
| 20260904034728 | 83 | 209 | 3.0 | 7.0 | 0.00 | 0.12 | 0.12 | 69 | 1011.0 |
| 20260904034228 | 83 | 234 | 2.0 | 6.0 | 0.00 | 0.12 | 0.12 | 69 | 1011.0 |
| 20260904033728 | 83 | 149 | 2.0 | 8.0 | 0.00 | 0.12 | 0.12 | 69 | 1010.9 |
| 20260904033228 | 83 | 213 | 3.0 | 8.0 | 0.00 | 0.12 | 0.12 | 69 | 1010.8 |
| 20260904032228 | 83 | 171 | 2.0 | 6.0 | 0.00 | 0.12 | 0.12 | 68 | 1010.5 |
| 20260904031227 | 83 | 200 | 2.0 | 6.0 | 0.00 | 0.12 | 0.12 | 68 | 1010.7 |
| 20260904030727 | 83 | 163 | 2.0 | 6.0 | 0.00 | 0.12 | 0.12 | 68 | 1010.6 |
| 20260904030228 | 83 | 180 | 2.0 | 9.0 | 0.00 | 0.12 | 0.12 | 68 | 1010.9 |
| 20260904025728 | 84 | 147 | 3.0 | 9.0 | 0.00 | 0.12 | 0.12 | 67 | 1010.9 |
| 20260904025228 | 84 | 68 | 3.0 | 9.0 | 0.00 | 0.12 | 0.12 | 67 | 1011.1 |
| 20260904024727 | 84 | 169 | 2.0 | 5.0 | 0.00 | 0.12 | 0.12 | 67 | 1011.1 |
| 20260904024227 | 84 | 254 | 2.0 | 6.0 | 0.00 | 0.12 | 0.12 | 67 | 1011.2 |
| 20260904023728 | 84 | 257 | 2.0 | 6.0 | 0.00 | 0.12 | 0.12 | 67 | 1011.1 |
| 20260904023228 | 84 | 245 | 2.0 | 3.0 | 0.00 | 0.12 | 0.12 | 67 | 1011.3 |
| 20260904022228 | 84 | 205 | 2.0 | 6.0 | 0.00 | 0.12 | 0.12 | 67 | 1011.3 |
| 20260904021728 | 84 | 211 | 1.0 | 6.0 | 0.00 | 0.12 | 0.12 | 66 | 1011.4 |
| 20260904021228 | 84 | 233 | 2.0 | 7.0 | 0.00 | 0.12 | 0.12 | 66 | 1011.6 |
| 20260904020728 | 84 | 247 | 2.0 | 7.0 | 0.00 | 0.12 | 0.12 | 66 | 1011.6 |
| 20260904020228 | 84 | 180 | 2.0 | 6.0 | 0.00 | 0.12 | 0.12 | 66 | 1011.7 |
| 20260904015728 | 84 | 172 | 2.0 | 8.0 | 0.00 | 0.12 | 0.12 | 66 | 1011.8 |
| 20260904015227 | 84 | 133 | 2.0 | 8.0 | 0.00 | 0.12 | 0.12 | 66 | 1011.9 |
| 20260904014727 | 84 | 259 | 2.0 | 8.0 | 0.00 | 0.12 | 0.12 | 66 | 1011.9 |
| 20260904014228 | 84 | 203 | 1.0 | 6.0 | 0.00 | 0.12 | 0.12 | 65 | 1011.9 |
| 20260904013728 | 84 | 170 | 2.0 | 6.0 | 0.00 | 0.12 | 0.12 | 65 | 1011.9 |
| 20260904013228 | 85 | 152 | 2.0 | 6.0 | 0.00 | 0.12 | 0.12 | 65 | 1011.8 |
| 20260904012728 | 85 | 199 | 1.0 | 3.0 | 0.00 | 0.12 | 0.12 | 65 | 1011.6 |
| 20260904012228 | 85 | 169 | 1.0 | 5.0 | 0.00 | 0.12 | 0.12 | 64 | 1011.7 |
| 20260904011227 | 85 | 196 | 2.0 | 5.0 | 0.00 | 0.12 | 0.12 | 64 | 1011.7 |
| 20260904010228 | 85 | 202 | 1.0 | 6.0 | 0.00 | 0.12 | 0.12 | 64 | 1011.6 |
| 20260904005727 | 85 | 195 | 1.0 | 6.0 | 0.00 | 0.12 | 0.12 | 63 | 1011.6 |
| 20260904005228 | 85 | 147 | 2.0 | 5.0 | 0.00 | 0.12 | 0.12 | 63 | 1011.5 |
| 20260904004728 | 85 | 165 | 1.0 | 5.0 | 0.00 | 0.12 | 0.12 | 64 | 1011.3 |
| 20260904004228 | 85 | 175 | 2.0 | 5.0 | 0.00 | 0.12 | 0.12 | 63 | 1011.2 |
| 20260904003728 | 85 | 157 | 1.0 | 5.0 | 0.00 | 0.12 | 0.12 | 63 | 1011.3 |
| 20260904003227 | 85 | 228 | 1.0 | 5.0 | 0.00 | 0.12 | 0.12 | 63 | 1011.5 |
| 20260904002727 | 85 | 157 | 1.0 | 5.0 | 0.00 | 0.12 | 0.12 | 63 | 1011.6 |
| 20260904002227 | 85 | 175 | 1.0 | 5.0 | 0.00 | 0.12 | 0.12 | 63 | 1011.6 |
| 20260904001728 | 85 | 209 | 2.0 | 6.0 | 0.00 | 0.12 | 0.12 | 63 | 1011.5 |
| 20260904001228 | 85 | 169 | 2.0 | 6.0 | 0.00 | 0.12 | 0.12 | 63 | 1011.2 |
| 20260904000727 | 85 | 223 | 2.0 | 6.0 | 0.00 | 0.12 | 0.12 | 63 | 1011.4 |
| 20260904000228 | 85 | 190 | 2.0 | 6.0 | 0.00 | 0.12 | 0.12 | 63 | 1011.2 |
| 20260903235228 | 86 | 190 | 1.0 | 3.0 | 0.00 | 0.12 | 0.12 | 62 | 1010.9 |
| 20260903234728 | 86 | 198 | 0.0 | 3.0 | 0.00 | 0.12 | 0.12 | 62 | 1010.9 |
| 20260903234228 | 86 | 230 | 2.0 | 6.0 | 0.00 | 0.12 | 0.12 | 61 | 1010.9 |
| 20260903233727 | 86 | 233 | 2.0 | 6.0 | 0.00 | 0.12 | 0.12 | 61 | 1011.0 |
| 20260903233228 | 86 | 254 | 1.0 | 2.0 | 0.00 | 0.12 | 0.12 | 60 | 1011.0 |
| 20260903232728 | 87 | 253 | 0.0 | 3.0 | 0.00 | 0.12 | 0.12 | 60 | 1010.8 |
| 20260903231727 | 87 | 253 | 1.0 | 5.0 | 0.00 | 0.12 | 0.12 | 59 | 1010.7 |
| 20260903231228 | 87 | 214 | 2.0 | 6.0 | 0.00 | 0.12 | 0.12 | 59 | 1010.9 |
| 20260903230727 | 87 | 238 | 1.0 | 6.0 | 0.00 | 0.12 | 0.12 | 58 | 1011.0 |
| 20260903230227 | 88 | 280 | 2.0 | 6.0 | 0.00 | 0.12 | 0.12 | 58 | 1011.0 |
| 20260903225727 | 88 | 236 | 1.0 | 3.0 | 0.00 | 0.12 | 0.12 | 58 | 1010.9 |
| 20260903225227 | 88 | 246 | 1.0 | 3.0 | 0.00 | 0.12 | 0.12 | 58 | 1011.0 |
| 20260903224228 | 88 | 212 | 1.0 | 3.0 | 0.00 | 0.12 | 0.12 | 58 | 1011.1 |
| 20260903223228 | 88 | 178 | 0.0 | 3.0 | 0.00 | 0.12 | 0.12 | 57 | 1011.2 |
| 20260903222228 | 89 | 217 | 1.0 | 3.0 | 0.00 | 0.12 | 0.12 | 56 | 1011.2 |
| 20260903221728 | 89 | 269 | 1.0 | 3.0 | 0.00 | 0.12 | 0.12 | 56 | 1011.1 |
| 20260903221227 | 89 | 263 | 1.0 | 3.0 | 0.00 | 0.12 | 0.12 | 55 | 1011.1 |
| 20260903220727 | 89 | 251 | 2.0 | 3.0 | 0.00 | 0.12 | 0.12 | 55 | 1011.2 |
| 20260903220227 | 89 | 256 | 3.0 | 6.0 | 0.00 | 0.12 | 0.12 | 55 | 1011.0 |
| 20260903215227 | 89 | 263 | 0.0 | 3.0 | 0.00 | 0.12 | 0.12 | 55 | 1010.9 |
| 20260903214727 | 89 | 156 | 1.0 | 3.0 | 0.00 | 0.12 | 0.12 | 55 | 1010.9 |
| 20260903214227 | 89 | 255 | 1.0 | 9.0 | 0.00 | 0.12 | 0.12 | 55 | 1010.9 |
| 20260903213728 | 89 | 250 | 1.0 | 9.0 | 0.00 | 0.12 | 0.12 | 55 | 1010.9 |
| 20260903213229 | 89 | 259 | 3.0 | 9.0 | 0.00 | 0.12 | 0.12 | 54 | 1010.9 |
| 20260903212728 | 89 | 231 | 4.0 | 7.0 | 0.00 | 0.12 | 0.12 | 54 | 1010.9 |
| 20260903211727 | 90 | 276 | 2.0 | 7.0 | 0.00 | 0.12 | 0.12 | 55 | 1010.8 |
| 20260903211227 | 90 | 170 | 3.0 | 9.0 | 0.00 | 0.12 | 0.12 | 54 | 1010.9 |
| 20260903210227 | 90 | 252 | 2.0 | 5.0 | 0.00 | 0.12 | 0.12 | 54 | 1011.0 |
| 20260903205727 | 90 | 176 | 2.0 | 5.0 | 0.00 | 0.12 | 0.12 | 55 | 1011.0 |
| 20260903205227 | 89 | 170 | 2.0 | 7.0 | 0.00 | 0.12 | 0.12 | 56 | 1011.1 |
| 20260903204728 | 89 | 203 | 2.0 | 7.0 | 0.00 | 0.12 | 0.12 | 57 | 1011.0 |
| 20260903204228 | 89 | 167 | 2.0 | 5.0 | 0.00 | 0.12 | 0.12 | 57 | 1011.0 |
| 20260903203727 | 89 | 286 | 2.0 | 8.0 | 0.00 | 0.12 | 0.12 | 57 | 1011.1 |
| 20260903203227 | 89 | 165 | 2.0 | 8.0 | 0.00 | 0.12 | 0.12 | 56 | 1011.1 |
| 20260903202727 | 89 | 250 | 1.0 | 6.0 | 0.00 | 0.12 | 0.12 | 56 | 1011.1 |
| 20260903202227 | 89 | 160 | 1.0 | 6.0 | 0.00 | 0.12 | 0.12 | 56 | 1011.0 |
| 20260903201705 | 89 | 257 | 3.0 | 7.0 | 0.00 | 0.12 | 0.12 | 56 | 1011.0 |
| 20260903201227 | 89 | 242 | 3.0 | 8.0 | 0.00 | 0.12 | 0.12 | 56 | 1011.1 |
| 20260903200728 | 89 | 256 | 2.0 | 8.0 | 0.00 | 0.12 | 0.12 | 56 | 1011.1 |
| 20260903200227 | 89 | 207 | 2.0 | 9.0 | 0.00 | 0.12 | 0.12 | 56 | 1011.3 |
| 20260903195227 | 90 | 224 | 3.0 | 7.0 | 0.00 | 0.12 | 0.12 | 56 | 1011.3 |
| 20260903194227 | 89 | 264 | 3.0 | 9.0 | 0.00 | 0.12 | 0.12 | 56 | 1011.3 |
| 20260903193227 | 89 | 125 | 3.0 | 10.0 | 0.00 | 0.13 | 0.12 | 57 | 1011.4 |
| 20260903191727 | 89 | 252 | 3.0 | 9.0 | 0.00 | 0.18 | 0.12 | 57 | 1011.6 |
| 20260903191227 | 89 | 214 | 2.0 | 9.0 | 0.00 | 0.19 | 0.12 | 56 | 1011.6 |
| 20260903190728 | 89 | 227 | 3.0 | 12.0 | 0.00 | 0.20 | 0.12 | 57 | 1011.7 |
| 20260903190227 | 89 | 263 | 3.0 | 12.0 | 0.00 | 0.21 | 0.12 | 56 | 1011.8 |
| 20260903185727 | 89 | 250 | 5.0 | 12.0 | 0.00 | 0.21 | 0.12 | 57 | 1011.9 |
| 20260903185227 | 89 | 231 | 3.0 | 7.0 | 0.00 | 0.21 | 0.12 | 57 | 1011.9 |
| 20260903184727 | 88 | 119 | 1.0 | 10.0 | 0.00 | 0.21 | 0.12 | 58 | 1011.9 |
| 20260903183727 | 88 | 150 | 5.0 | 8.0 | 0.00 | 0.21 | 0.12 | 58 | 1012.0 |
| 20260903183226 | 88 | 153 | 3.0 | 10.0 | 0.00 | 0.21 | 0.12 | 58 | 1012.0 |
| 20260903182727 | 88 | 223 | 2.0 | 10.0 | 0.00 | 0.21 | 0.12 | 59 | 1012.0 |
| 20260903182226 | 88 | 263 | 4.0 | 10.0 | 0.00 | 0.21 | 0.12 | 58 | 1012.1 |
| 20260903181727 | 87 | 208 | 5.0 | 10.0 | 0.00 | 0.21 | 0.12 | 59 | 1012.1 |
| 20260903180726 | 87 | 240 | 1.0 | 13.0 | 0.00 | 0.21 | 0.12 | 61 | 1012.1 |
| 20260903175727 | 86 | 254 | 3.0 | 10.0 | 0.00 | 0.21 | 0.12 | 62 | 1012.2 |
| 20260903175227 | 86 | 244 | 6.0 | 10.0 | 0.00 | 0.21 | 0.12 | 61 | 1012.5 |
| 20260903174227 | 86 | 45 | 4.0 | 12.0 | 0.00 | 0.21 | 0.12 | 62 | 1012.5 |
| 20260903173227 | 86 | 280 | 4.0 | 10.0 | 0.00 | 0.21 | 0.12 | 61 | 1012.7 |
| 20260903172727 | 86 | 286 | 3.0 | 10.0 | 0.00 | 0.21 | 0.12 | 62 | 1012.8 |
| 20260903171727 | 85 | 246 | 5.0 | 12.0 | 0.00 | 0.21 | 0.12 | 62 | 1013.1 |
| 20260903171227 | 85 | 32 | 3.0 | 10.0 | 0.00 | 0.21 | 0.12 | 63 | 1013.0 |
| 20260903170727 | 85 | 263 | 3.0 | 10.0 | 0.00 | 0.21 | 0.12 | 64 | 1013.1 |
| 20260903170227 | 84 | 208 | 4.0 | 10.0 | 0.00 | 0.21 | 0.12 | 64 | 1013.1 |
| 20260903165727 | 84 | 242 | 2.0 | 12.0 | 0.00 | 0.21 | 0.12 | 65 | 1013.2 |
| 20260903165227 | 84 | 161 | 5.0 | 12.0 | 0.00 | 0.21 | 0.12 | 65 | 1013.2 |
| 20260903164726 | 84 | 188 | 3.0 | 12.0 | 0.00 | 0.21 | 0.12 | 65 | 1013.4 |
| 20260903164226 | 84 | 251 | 3.0 | 9.0 | 0.00 | 0.21 | 0.12 | 65 | 1013.2 |
| 20260903163727 | 83 | 162 | 3.0 | 8.0 | 0.00 | 0.21 | 0.12 | 66 | 1013.4 |
| 20260903162727 | 83 | 247 | 3.0 | 10.0 | 0.00 | 0.21 | 0.12 | 66 | 1013.4 |
| 20260903162227 | 83 | 277 | 5.0 | 10.0 | 0.00 | 0.21 | 0.12 | 66 | 1013.4 |
| 20260903161227 | 82 | 165 | 5.0 | 10.0 | 0.00 | 0.21 | 0.12 | 68 | 1013.5 |
| 20260903155727 | 81 | 234 | 5.0 | 12.0 | 0.00 | 0.21 | 0.12 | 70 | 1013.8 |
| 20260903155227 | 81 | 124 | 5.0 | 14.0 | 0.00 | 0.21 | 0.12 | 70 | 1013.9 |
| 20260903154727 | 80 | 224 | 5.0 | 14.0 | 0.00 | 0.21 | 0.12 | 71 | 1014.0 |
| 20260903154227 | 80 | 265 | 4.0 | 10.0 | 0.00 | 0.21 | 0.12 | 72 | 1014.1 |
| 20260903153227 | 80 | 227 | 6.0 | 12.0 | 0.00 | 0.21 | 0.12 | 72 | 1014.3 |
| 20260903152726 | 79 | 235 | 3.0 | 12.0 | 0.00 | 0.21 | 0.12 | 73 | 1014.2 |
| 20260903152227 | 79 | 0 | 3.0 | 9.0 | 0.00 | 0.21 | 0.12 | 74 | 1014.2 |
| 20260903151727 | 79 | 263 | 3.0 | 12.0 | 0.00 | 0.21 | 0.12 | 74 | 1014.1 |
| 20260903151226 | 78 | 240 | 5.0 | 12.0 | 0.00 | 0.21 | 0.12 | 75 | 1014.2 |
| 20260903150727 | 78 | 0 | 4.0 | 9.0 | 0.00 | 0.21 | 0.12 | 75 | 1014.1 |
| 20260903150227 | 78 | 0 | 3.0 | 12.0 | 0.00 | 0.21 | 0.12 | 76 | 1014.1 |
| 20260903145727 | 78 | 0 | 4.0 | 12.0 | 0.00 | 0.21 | 0.12 | 77 | 1014.2 |
| 20260903145227 | 78 | 0 | 5.0 | 12.0 | 0.00 | 0.21 | 0.12 | 77 | 1014.3 |
| 20260903144226 | 77 | 195 | 4.0 | 12.0 | 0.00 | 0.21 | 0.12 | 79 | 1014.1 |
| 20260903143727 | 77 | 214 | 3.0 | 7.0 | 0.00 | 0.21 | 0.12 | 80 | 1014.2 |
| 20260903143228 | 77 | 259 | 2.0 | 7.0 | 0.00 | 0.21 | 0.12 | 80 | 1014.1 |
| 20260903142726 | 76 | 248 | 2.0 | 7.0 | 0.00 | 0.21 | 0.12 | 81 | 1014.2 |
| 20260903142227 | 76 | 217 | 3.0 | 8.0 | 0.00 | 0.21 | 0.12 | 81 | 1014.1 |
| 20260903141727 | 76 | 180 | 3.0 | 12.0 | 0.00 | 0.21 | 0.12 | 82 | 1014.2 |
| 20260903141226 | 76 | 314 | 5.0 | 12.0 | 0.00 | 0.21 | 0.12 | 83 | 1014.2 |
| 20260903140727 | 75 | 265 | 3.0 | 8.0 | 0.00 | 0.21 | 0.12 | 84 | 1014.3 |
| 20260903140227 | 75 | 207 | 2.0 | 8.0 | 0.00 | 0.21 | 0.12 | 85 | 1014.2 |
| 20260903135727 | 74 | 254 | 3.0 | 8.0 | 0.00 | 0.21 | 0.12 | 86 | 1014.3 |
| 20260903135226 | 74 | 146 | 3.0 | 7.0 | 0.00 | 0.21 | 0.12 | 85 | 1014.4 |
| 20260903134726 | 74 | 218 | 3.0 | 6.0 | 0.00 | 0.21 | 0.12 | 86 | 1014.2 |
| 20260903134226 | 74 | 180 | 2.0 | 9.0 | 0.00 | 0.21 | 0.12 | 86 | 1014.3 |
| 20260903133226 | 73 | 202 | 2.0 | 9.0 | 0.00 | 0.21 | 0.12 | 87 | 1014.4 |
| 20260903132227 | 73 | 199 | 2.0 | 7.0 | 0.00 | 0.21 | 0.12 | 88 | 1014.7 |
| 20260903131726 | 73 | 239 | 3.0 | 7.0 | 0.00 | 0.21 | 0.12 | 88 | 1014.6 |
| 20260903131226 | 73 | 211 | 2.0 | 10.0 | 0.00 | 0.21 | 0.12 | 88 | 1014.4 |
| 20260903130727 | 72 | 178 | 3.0 | 10.0 | 0.00 | 0.21 | 0.12 | 88 | 1014.3 |
| 20260903130227 | 72 | 148 | 2.0 | 8.0 | 0.00 | 0.21 | 0.12 | 89 | 1014.6 |
| 20260903125726 | 72 | 158 | 1.0 | 8.0 | 0.00 | 0.21 | 0.12 | 89 | 1014.7 |
| 20260903125226 | 72 | 163 | 3.0 | 8.0 | 0.00 | 0.21 | 0.12 | 90 | 1014.6 |
| 20260903124727 | 72 | 202 | 3.0 | 6.0 | 0.00 | 0.21 | 0.12 | 90 | 1014.5 |
| 20260903124227 | 72 | 219 | 2.0 | 6.0 | 0.00 | 0.21 | 0.12 | 90 | 1014.6 |
| 20260903123226 | 71 | 155 | 2.0 | 5.0 | 0.00 | 0.21 | 0.12 | 91 | 1014.7 |
| 20260903122726 | 71 | 243 | 2.0 | 5.0 | 0.00 | 0.21 | 0.12 | 91 | 1014.6 |
| 20260903121226 | 71 | 244 | 2.0 | 3.0 | 0.00 | 0.21 | 0.12 | 91 | 1014.7 |
| 20260903120226 | 71 | 171 | 0.0 | 3.0 | 0.00 | 0.21 | 0.12 | 92 | 1014.8 |
| 20260903115726 | 71 | 180 | 0.0 | 3.0 | 0.00 | 0.21 | 0.12 | 92 | 1014.7 |
| 20260903115227 | 71 | 165 | 1.0 | 3.0 | 0.00 | 0.21 | 0.12 | 92 | 1014.7 |
| 20260903114726 | 70 | 212 | 2.0 | 5.0 | 0.00 | 0.21 | 0.12 | 92 | 1015.0 |
| 20260903114226 | 70 | 253 | 2.0 | 5.0 | 0.00 | 0.21 | 0.12 | 92 | 1014.9 |
| 20260903113726 | 70 | 236 | 2.0 | 5.0 | 0.00 | 0.21 | 0.12 | 92 | 1014.8 |
| 20260903113226 | 70 | 243 | 1.0 | 3.0 | 0.00 | 0.21 | 0.12 | 92 | 1014.6 |
| 20260903112726 | 70 | 200 | 1.0 | 3.0 | 0.00 | 0.21 | 0.12 | 92 | 1014.7 |
| 20260903112226 | 70 | 248 | 1.0 | 3.0 | 0.00 | 0.21 | 0.12 | 92 | 1014.8 |
| 20260903111726 | 70 | 194 | 0.0 | 5.0 | 0.00 | 0.21 | 0.12 | 92 | 1014.7 |
| 20260903111227 | 70 | 263 | 2.0 | 6.0 | 0.00 | 0.21 | 0.12 | 92 | 1014.7 |
| 20260903110226 | 70 | 202 | 1.0 | 3.0 | 0.00 | 0.21 | 0.12 | 92 | 1014.6 |